Temp
6 5 5 3 3 2 3 3 3 4 4 4 5 5 6 6 7 8 9 11 14 14 15 15 15 16 17 18 18 18 18 18 18 18 18 17 17 17 16 16 16 15 15
5 4 3 3 2 2 1 2 2 3 3 3 4 4 5 6 6 7 7 8 10 13 14 14 14 14 16 17 17 18 18 18 18 18 18 17 17 17 16 16 16 15 15
3 2 2 1 1 1 1 1 2 2 3 4 4 4 4 5 6 6 7 7 9 9 12 13 15 14 15 16 17 17 18 18 18 18 18 17 17 17 16 16 15 15 15
2 1 1 0 -0 0 1 1 1 2 3 3 4 4 5 6 6 6 6 7 8 8 9 11 13 14 14 15 16 17 17 18 18 18 18 17 17 17 16 16 15 15 15
2 0 -0 -1 -1 -0 -0 -0 0 1 1 2 3 4 5 5 6 6 6 7 7 7 8 9 10 13 14 13 15 16 16 17 18 17 17 17 17 17 17 16 16 16 15
1 -1 -1 -2 -2 -1 -1 -1 -1 0 1 1 2 4 5 6 6 7 8 8 7 7 8 9 10 11 12 14 14 15 16 16 17 18 18 18 17 17 17 17 16 16 16
-1 -2 -2 -2 -2 -2 -2 -2 -1 -1 1 0 1 3 7 8 7 6 7 7 7 8 9 9 10 11 12 12 13 14 15 17 17 17 18 18 18 17 17 17 17 17 16
-1 -2 -3 -3 -3 -3 -2 -2 -2 -1 -1 0 1 2 5 8 8 6 7 8 7 7 9 9 9 9 10 12 13 13 14 15 17 17 17 18 18 17 17 17 17 17 17
-2 -3 -4 -4 -3 -3 -3 -3 -3 -2 -2 -0 0 1 3 4 3 7 7 7 7 7 7 9 9 9 10 10 11 12 13 14 15 16 16 17 17 18 17 17 17 17 17
-3 -4 -4 -4 -4 -4 -4 -4 -3 -3 -3 -1 -0 -1 -1 -0 3 3 5 5 4 5 7 8 9 9 9 10 11 12 13 14 14 15 15 16 16 17 17 17 17 17 17
-3 -4 -4 -4 -4 -4 -4 -4 -4 -4 -3 -3 -2 -2 -1 -0 1 -0 2 3 2 4 6 7 7 9 9 9 10 12 13 12 14 14 14 15 16 16 16 16 16 17 17
-4 -5 -5 -5 -5 -5 -5 -5 -5 -4 -4 -4 -4 -3 -3 -2 -2 -1 -0 0 2 3 3 6 7 8 9 10 9 9 11 12 13 13 13 14 15 15 15 16 15 16 17
-4 -5 -5 -5 -5 -6 -5 -5 -5 -5 -5 -5 -5 -4 -4 -4 -4 -3 -2 -1 0 2 4 6 7 7 7 6 7 8 8 11 12 12 13 13 14 15 16 16 15 15 16
-5 -5 -5 -6 -6 -6 -6 -5 -5 -5 -5 -5 -5 -5 -5 -4 -4 -4 -4 -3 -0 3 4 4 5 4 3 5 5 6 8 8 12 13 13 13 14 14 15 15 16 15 15
-5 -6 -6 -6 -6 -6 -6 -6 -6 -6 -5 -5 -6 -5 -6 -5 -5 -4 -4 -4 -3 -1 1 3 1 1 1 2 3 5 5 6 9 13 12 13 13 14 14 14 15 16 15
-6 -6 -6 -6 -6 -6 -6 -6 -6 -6 -6 -6 -6 -6 -6 -6 -5 -5 -5 -4 -4 -3 -1 1 -0 -0 -1 -0 1 3 3 3 4 10 12 13 13 14 14 14 14 14 14
-6 -6 -6 -7 -7 -7 -7 -7 -7 -7 -7 -7 -7 -7 -7 -6 -6 -6 -5 -5 -4 -4 -3 -2 -1 -2 -3 -2 0 1 2 1 0 2 6 13 14 14 14 13 14 14 15
-7 -7 -7 -7 -8 -8 -8 -8 -8 -8 -9 -8 -8 -8 -7 -7 -7 -6 -6 -6 -6 -5 -5 -4 -2 -3 -4 -4 -2 -0 -0 0 -0 -0 0 2 5 8 10 11 13 13 13
-7 -7 -7 -7 -7 -8 -8 -9 -9 -9 -9 -9 -9 -8 -8 -7 -7 -7 -7 -7 -7 -5 -5 -5 -4 -4 -5 -5 -3 -2 -2 -1 -1 -2 -1 -1 -1 0 1 5 9 12 12
-7 -7 -7 -7 -8 -8 -8 -9 -9 -9 -9 -9 -9 -8 -8 -8 -8 -8 -8 -8 -8 -6 -6 -5 -5 -5 -5 -5 -5 -4 -2 -2 -3 -3 -2 -2 -2 -2 -2 -1 1 3 6
-7 -7 -7 -7 -7 -7 -7 -8 -9 -9 -9 -9 -9 -9 -9 -9 -9 -8 -9 -8 -8 -8 -7 -6 -6 -6 -6 -6 -7 -5 -4 -3 -3 -4 -3 -3 -3 -3 -3 -2 -2 -1 -0
-7 -7 -7 -7 -7 -7 -7 -8 -9 -9 -9 -9 -9 -9 -9 -9 -10 -10 -10 -10 -9 -9 -9 -8 -8 -8 -8 -8 -7 -5 -5 -4 -4 -4 -4 -4 -4 -5 -4 -4 -3 -3 -2
-7 -7 -8 -7 -7 -6 -7 -8 -9 -9 -9 -9 -9 -9 -9 -9 -10 -10 -10 -11 -12 -10 -10 -10 -9 -9 -9 -10 -9 -7 -6 -5 -6 -7 -5 -4 -5 -6 -6 -5 -5 -4 -4
-7 -7 -8 -8 -7 -7 -7 -8 -8 -8 -8 -8 -8 -8 -8 -9 -10 -10 -9 -10 -11 -12 -11 -11 -10 -11 -10 -10 -10 -9 -8 -5 -6 -7 -6 -6 -6 -5 -6 -6 -7 -6 -6
-7 -8 -8 -8 -8 -7 -7 -8 -7 -8 -8 -9 -9 -9 -9 -9 -10 -11 -10 -10 -11 -12 -12 -12 -12 -12 -12 -11 -11 -10 -10 -8 -6 -8 -10 -9 -7 -6 -6 -7 -7 -6 -7
-8 -8 -9 -9 -8 -8 -7 -8 -8 -8 -9 -9 -9 -9 -10 -9 -10 -11 -11 -11 -12 -13 -13 -12 -12 -12 -13 -13 -12 -12 -12 -10 -9 -9 -11 -10 -8 -7 -3 -6 -8 -8 -7
Height
816 813 810 809 806 803 800 797 794 790 787 785 782 779 776 773 770 768 765 761 761 761 763 764 765 765 767 769 771 773 776 779 782 784 788 792 794 798 803 806 809 813 817
819 816 814 810 807 803 801 798 795 790 786 783 780 777 773 769 766 763 761 757 754 754 755 756 758 759 760 762 763 765 768 771 775 778 781 785 789 792 797 801 804 808 814
822 819 816 812 808 805 801 799 795 790 786 782 778 775 769 765 762 759 755 753 750 747 746 749 750 753 753 754 755 757 760 763 766 770 773 778 782 786 790 795 798 803 808
823 820 818 814 809 807 803 800 796 790 786 781 777 772 766 761 757 754 751 749 746 744 742 740 743 745 746 748 748 750 752 755 758 761 765 769 773 779 783 787 793 798 803
824 821 819 815 811 808 805 801 797 792 786 781 776 769 762 757 753 751 749 746 743 740 739 736 735 736 738 740 742 743 745 747 749 753 757 760 765 770 775 781 787 792 797
824 821 820 817 813 810 805 802 796 792 787 782 775 766 758 753 751 749 747 745 741 739 737 734 732 731 731 733 735 736 737 739 742 746 746 753 758 763 767 773 779 785 791
824 822 819 817 814 810 806 802 797 791 786 781 774 765 754 749 748 748 745 743 741 738 734 733 730 728 727 727 728 729 730 731 733 736 739 745 749 755 760 764 771 777 783
823 821 819 817 815 812 807 802 798 793 787 784 777 769 758 749 748 746 745 742 741 737 733 731 728 726 724 722 723 723 723 724 725 728 731 735 739 745 751 756 762 768 775
824 821 819 817 816 812 809 804 800 796 792 786 782 777 770 761 758 745 743 742 740 736 732 729 725 724 721 720 718 717 718 718 719 721 723 728 732 735 741 748 753 758 765
823 822 820 817 816 813 810 805 803 800 795 789 783 780 779 777 765 751 745 743 740 736 731 727 723 720 718 716 714 713 713 712 714 715 716 718 719 725 730 738 744 749 755
824 822 823 820 817 812 809 806 802 800 797 794 787 782 778 774 770 770 750 744 741 736 730 725 721 718 715 713 711 709 709 708 707 708 710 709 711 714 708 726 734 741 749
827 826 823 820 816 813 809 805 803 802 799 795 790 786 784 780 776 774 763 755 746 734 728 722 719 715 713 711 709 706 704 703 701 701 701 700 698 705 696 718 725 732 740
828 826 824 820 816 814 810 806 804 804 801 797 792 788 785 782 780 774 767 758 750 735 726 720 718 715 712 709 706 703 700 696 695 694 694 692 691 695 704 696 713 723 733
828 827 824 821 817 814 811 808 805 804 802 798 794 790 786 783 780 776 771 763 749 735 729 724 720 715 711 708 704 699 695 690 688 687 687 688 690 693 694 702 705 715 722
828 827 824 821 819 816 813 812 807 803 803 799 795 792 789 785 781 777 772 767 762 747 735 726 726 720 714 708 703 697 692 687 683 681 681 682 685 690 694 699 702 706 713
828 827 825 823 821 818 815 813 808 804 803 800 798 795 791 787 783 777 772 767 763 759 747 735 729 723 716 709 703 697 693 688 682 677 676 676 677 680 684 689 694 700 705
829 828 827 826 823 819 817 814 810 806 804 803 800 797 793 789 784 779 773 768 763 759 751 739 732 726 717 710 703 699 696 692 688 679 674 670 671 674 677 681 686 692 698
830 829 829 828 825 822 819 816 812 809 806 805 803 799 795 790 786 781 775 770 765 760 753 743 734 728 721 713 707 703 699 697 693 687 683 674 671 672 674 678 682 688 691
831 830 830 829 827 825 822 818 814 811 809 808 805 802 798 793 789 783 780 775 768 761 757 750 741 733 725 718 710 707 704 701 700 697 690 688 683 678 678 675 676 679 684
832 831 831 830 829 827 824 821 817 814 812 810 807 804 800 796 792 788 783 777 772 766 760 754 748 739 732 724 718 713 710 707 703 703 698 696 694 687 687 680 677 677 679
834 834 833 832 830 829 827 823 819 817 815 813 810 806 803 799 796 792 787 783 777 771 764 758 752 747 739 730 725 721 716 712 713 709 705 707 703 694 696 693 687 687 684
835 835 834 833 832 831 829 826 822 820 818 815 812 809 806 802 797 794 791 787 783 776 771 764 760 754 748 742 735 729 723 718 719 713 716 714 712 703 703 703 697 698 687
836 836 836 835 834 832 830 827 824 822 821 818 815 812 808 805 800 796 793 789 785 782 777 773 768 763 755 748 741 736 731 728 729 723 724 722 719 711 713 712 700 701 696
836 836 836 836 835 833 831 829 827 825 823 820 818 815 812 808 804 799 795 791 787 784 782 777 774 770 764 756 747 744 738 734 732 729 728 730 726 726 718 709 708 704 700
835 836 836 835 835 834 831 829 827 826 824 822 821 819 816 812 809 803 799 795 791 788 785 781 777 772 767 761 752 746 739 738 737 740 735 733 732 724 719 716 709 708 713
834 836 836 835 835 834 832 830 828 827 826 825 823 822 819 816 812 807 803 800 795 792 788 783 778 774 769 765 759 755 754 749 746 743 742 740 735 729 721 723 721 719 712
Wind_Speed
17 17 17 16 17 18 18 18 17 17 16 17 16 17 18 18 18 19 21 28 31 30 30 29 28 22 26 29 29 32 35 36 37 37 36 34 34 34 36 36 36 34 31
18 17 16 17 17 18 17 17 18 18 17 17 17 17 18 19 19 20 20 23 28 32 32 31 29 26 24 27 30 33 37 38 38 37 37 36 34 33 37 39 39 36 32
18 16 15 16 17 16 16 16 17 16 18 18 18 19 19 19 19 21 20 21 24 27 31 33 34 29 25 26 29 34 37 40 40 40 39 39 37 35 36 40 40 38 35
17 16 15 17 19 16 16 16 18 19 18 19 20 21 22 20 19 19 19 19 20 22 23 27 33 34 28 24 28 32 37 40 43 43 42 42 41 38 37 39 40 39 38
17 16 14 16 17 15 15 16 18 17 19 19 21 22 21 19 14 12 14 14 16 18 20 22 25 32 33 27 25 28 32 41 43 45 44 44 44 41 40 40 44 41 40
17 16 13 16 15 15 15 17 17 18 16 17 24 20 20 12 7 7 17 11 10 11 13 16 19 21 26 31 26 25 29 34 44 44 43 46 45 44 42 44 44 42 43
16 14 14 15 16 16 16 17 17 20 17 18 15 21 10 9 3 26 9 14 9 16 13 13 12 14 20 22 25 26 25 29 39 47 47 47 45 47 45 47 47 44 45
15 15 15 16 17 16 17 17 18 19 18 18 12 11 7 5 11 15 15 11 19 16 15 14 13 12 11 12 16 23 26 24 27 42 47 45 45 48 48 49 49 49 47
15 15 14 15 15 15 16 17 17 17 16 16 15 8 4 4 13 8 16 14 22 21 20 16 15 14 13 13 13 15 18 24 22 30 42 45 44 47 48 51 53 51 51
15 15 14 14 13 12 15 15 15 15 15 15 10 15 9 11 4 6 8 23 23 25 22 19 17 16 14 14 15 15 18 15 23 23 29 43 45 45 47 52 56 55 52
13 15 13 12 12 12 13 14 16 16 14 12 13 17 13 14 8 6 8 15 27 21 21 21 22 16 15 14 15 17 16 19 18 22 25 30 45 47 52 53 54 53 55
10 13 13 12 12 13 14 14 15 15 14 13 14 13 13 8 15 10 9 14 15 19 29 17 17 15 13 14 14 16 16 20 19 18 24 28 33 48 48 53 50 48 49
9 11 14 14 13 13 12 13 14 14 15 15 17 16 14 13 14 13 16 16 9 20 9 15 13 17 15 18 20 22 22 18 19 19 24 26 27 32 43 40 39 35 43
9 10 12 13 14 14 13 12 12 13 14 14 16 18 15 16 15 14 15 18 10 7 14 17 17 19 35 25 25 28 21 25 22 22 21 25 26 30 33 45 40 34 37
8 10 12 14 14 14 13 12 14 14 14 15 15 18 16 16 17 16 14 14 13 7 11 9 16 24 31 24 24 20 20 18 21 22 21 22 25 26 33 41 45 44 50
9 10 11 13 13 15 15 13 14 16 14 16 16 19 18 18 17 17 17 15 12 14 6 20 26 25 30 24 22 20 20 18 22 15 18 19 21 24 25 30 36 40 50
10 11 11 12 14 15 16 15 15 17 16 16 17 18 20 18 18 19 19 19 17 15 11 24 24 24 19 27 22 21 20 21 29 28 9 15 20 22 23 24 32 35 48
9 10 11 11 13 16 15 16 16 17 18 18 17 19 21 21 20 21 21 22 20 18 18 19 22 25 18 29 23 20 17 20 24 32 33 28 13 8 17 26 31 33 35
11 11 11 12 12 14 15 15 16 16 17 16 16 18 20 20 22 22 22 22 22 19 19 17 21 22 20 29 27 23 23 20 19 24 26 32 33 31 24 16 22 30 33
13 14 14 15 12 13 15 15 16 17 17 17 17 16 20 20 21 21 20 24 24 20 20 19 21 22 24 21 19 25 17 28 29 26 27 26 25 33 32 33 26 17 11
11 12 13 14 14 13 15 16 18 17 18 19 18 19 20 21 17 19 19 21 24 22 22 22 22 21 25 27 23 21 18 11 21 32 27 26 27 34 32 33 33 29 25
9 9 12 14 14 14 14 15 15 16 17 19 22 21 21 23 19 18 18 18 23 24 23 24 22 24 26 26 21 18 19 11 4 28 20 24 25 29 32 33 33 30 34
7 8 9 8 11 13 13 12 14 15 16 18 20 21 22 25 23 17 17 17 19 22 21 20 22 26 25 29 21 17 16 14 11 23 17 17 24 30 28 30 34 32 34
5 6 7 8 9 11 10 11 11 13 15 17 19 21 21 23 26 20 18 19 19 20 22 20 20 21 26 29 21 15 12 6 13 26 19 7 20 16 27 31 31 32 33
6 6 5 7 8 10 11 12 9 11 13 16 17 20 21 22 24 22 20 20 19 20 17 19 19 21 23 28 31 24 30 17 8 10 29 10 12 12 20 30 34 32 29
6 6 6 7 9 10 13 12 10 9 12 12 14 15 19 21 22 24 21 20 19 19 19 20 22 22 24 26 29 30 24 21 13 8 23 14 17 13 4 17 25 28 32
Wind_Direction
8 5 3 359 356 352 348 345 340 335 330 324 320 314 307 300 292 285 278 271 267 259 255 255 258 250 252 244 243 236 232 231 231 228 225 225 221 221 218 214 205 207 212
8 2 359 357 354 352 346 342 338 334 330 326 321 315 309 301 292 286 283 281 275 268 259 257 257 259 252 248 239 239 231 231 232 230 227 223 227 220 219 217 209 210 209
8 4 359 356 353 349 348 343 340 337 331 328 321 316 311 301 293 289 285 282 282 280 270 261 254 258 255 250 240 236 237 231 231 231 227 224 226 221 220 219 212 211 213
9 5 1 357 352 351 350 346 341 336 334 331 325 318 308 302 296 292 289 286 282 280 278 272 259 254 255 254 247 236 237 237 233 231 229 225 223 223 222 217 210 210 214
9 8 1 356 355 352 352 347 341 339 333 332 325 317 309 305 305 308 309 303 296 287 282 279 274 258 252 253 254 247 238 235 235 233 230 227 224 221 222 218 212 213 213
12 10 3 359 358 356 352 349 345 340 334 335 325 318 314 306 308 351 331 327 328 326 310 295 280 269 262 252 253 255 250 239 233 233 233 231 227 223 220 217 215 215 209
13 11 9 3 2 359 354 351 348 344 343 339 326 331 331 341 179 336 326 327 332 335 329 322 312 284 272 271 257 259 258 245 236 229 232 229 227 224 223 219 218 215 210
15 15 12 5 3 355 356 356 356 348 341 346 333 319 343 350 340 342 343 347 335 332 329 325 321 313 305 275 262 259 261 260 245 234 229 227 227 225 222 220 218 217 216
13 14 17 9 4 2 358 356 357 356 341 342 347 20 336 336 330 296 333 334 332 335 325 319 319 314 308 299 298 277 270 265 257 243 235 229 229 227 223 222 220 218 219
15 12 13 13 8 5 3 1 356 354 353 348 350 357 342 314 328 316 323 320 339 326 319 315 316 316 312 303 300 288 271 277 265 262 248 234 229 227 228 225 222 220 221
22 24 11 9 11 16 11 8 4 2 358 356 4 352 344 338 38 315 311 325 325 324 313 313 308 312 318 312 302 303 290 291 268 260 258 246 231 227 227 227 224 223 223
21 20 14 13 13 13 16 19 13 8 4 4 10 6 357 351 333 324 308 317 315 314 312 311 313 317 317 324 321 324 302 289 279 270 260 252 238 229 232 223 221 225 226
19 14 16 19 17 12 15 22 21 13 10 14 17 9 2 353 335 325 317 320 314 313 314 327 340 334 342 344 330 327 319 302 288 289 266 261 251 239 226 222 212 223 236
27 25 23 24 24 23 19 20 24 17 9 11 15 13 6 358 349 337 329 327 325 312 319 329 338 345 339 333 330 327 321 303 285 283 272 256 252 248 241 233 228 225 269
43 34 31 29 27 27 25 22 28 26 14 16 15 10 6 359 355 352 346 343 331 320 327 330 342 331 334 343 342 346 337 325 288 275 273 261 252 243 236 234 231 228 227
45 39 33 31 29 31 29 29 29 28 21 19 17 12 11 3 0 360 356 353 348 326 299 324 325 331 333 342 352 12 358 352 5 303 270 255 257 250 246 239 235 226 223
52 47 42 39 36 37 34 35 36 31 30 22 20 16 15 9 8 6 5 1 358 346 325 325 334 337 346 352 10 13 22 23 29 39 28 252 253 249 242 241 233 232 223
60 55 52 49 43 41 37 38 38 35 31 24 19 17 14 14 13 11 10 6 2 359 348 333 343 351 347 3 15 15 27 32 31 37 47 66 95 158 209 217 214 217 222
68 66 60 53 48 42 40 39 41 38 33 29 21 21 16 16 16 12 12 8 5 3 5 358 350 356 353 4 17 21 32 44 37 28 39 49 53 66 74 123 190 205 219
73 71 69 66 56 49 44 43 44 43 39 33 30 29 24 21 18 13 13 13 8 8 8 13 9 4 5 358 12 11 8 37 41 38 35 42 46 54 50 59 69 88 152
76 76 73 67 63 51 43 42 48 46 42 36 36 36 30 26 28 27 23 18 17 14 15 14 13 9 7 4 5 353 4 354 43 34 32 31 39 50 44 48 58 59 65
81 78 75 69 61 52 47 45 46 45 42 37 33 33 30 26 27 30 31 33 31 26 21 20 15 9 4 1 357 5 20 19 360 19 17 25 35 43 43 40 50 50 59
84 75 68 59 56 48 42 42 42 43 41 36 34 31 30 27 24 27 27 34 37 35 33 26 24 17 8 3 357 3 19 48 49 30 18 25 28 42 45 36 44 42 50
88 79 64 56 57 40 45 40 46 45 44 42 39 32 31 28 24 25 28 31 32 34 31 33 32 25 21 16 19 5 6 30 48 36 35 3 9 27 42 40 35 36 40
93 78 69 62 51 43 40 41 45 45 44 43 39 37 33 31 26 29 32 30 31 30 28 33 34 32 30 27 30 33 24 23 43 26 18 353 344 331 30 33 38 39 31
103 92 80 77 69 51 44 44 39 46 42 38 35 34 32 32 29 31 35 29 27 20 19 25 29 30 31 30 34 38 30 30 21 18 0 354 353 349 9 32 30 24 30